Time,TemperatureF,DewpointF,PressureIn,WindDirection,WindDirectionDegrees,WindSpeedMPH,WindSpeedGustMPH,Humidity,HourlyPrecipIn,Conditions,Clouds,dailyrainin,SoftwareType,DateUTC
2013-10-13 00:07:00,66.4,62.0,30.10,NW,312,5.0,9.0,86,0.00,,,0.00,weatherlink.com 1.10,2013-10-13 04:07:00,
2013-10-13 00:22:00,66.2,62.0,30.10,NE,46,1.0,9.0,86,0.00,,,0.00,weatherlink.com 1.10,2013-10-13 04:22:00,
2013-10-13 00:37:00,65.8,61.0,30.11,NE,53,3.0,11.0,85,0.00,,,0.00,weatherlink.com 1.10,2013-10-13 04:37:00,
2013-10-13 00:52:00,65.4,61.0,30.11,WNW,290,0.0,9.0,85,0.00,,,0.00,weatherlink.com 1.10,2013-10-13 04:52:00,
2013-10-13 01:07:00,64.8,61.0,30.12,NW,304,0.0,6.0,86,0.00,,,0.00,weatherlink.com 1.10,2013-10-13 05:07:00,
2013-10-13 01:22:00,64.3,60.0,30.12,NW,325,2.0,9.0,85,0.00,,,0.00,weatherlink.com 1.10,2013-10-13 05:22:00,
2013-10-13 01:37:00,63.8,59.0,30.13,WSW,250,3.0,9.0,84,0.00,,,0.00,weatherlink.com 1.10,2013-10-13 05:37:00,
2013-10-13 01:52:00,63.1,58.0,30.13,WNW,296,1.0,6.0,84,0.00,,,0.00,weatherlink.com 1.10,2013-10-13 05:52:00,
2013-10-13 02:07:00,62.4,58.0,30.14,NW,319,3.0,8.0,85,0.00,,,0.00,weatherlink.com 1.10,2013-10-13 06:07:00,
2013-10-13 02:22:00,61.8,58.0,30.14,WNW,286,2.0,9.0,86,0.00,,,0.00,weatherlink.com 1.10,2013-10-13 06:22:00,
2013-10-13 02:38:00,61.3,57.0,30.14,NW,313,5.0,10.0,84,0.00,,,0.00,weatherlink.com 1.10,2013-10-13 06:38:00,
2013-10-13 02:53:00,60.7,55.0,30.15,NW,323,0.0,9.0,82,0.00,,,0.00,weatherlink.com 1.10,2013-10-13 06:53:00,
2013-10-13 03:08:00,60.3,55.0,30.15,NW,322,5.0,11.0,82,0.00,,,0.00,weatherlink.com 1.10,2013-10-13 07:08:00,
2013-10-13 03:23:00,59.9,54.0,30.16,NNW,331,1.0,6.0,81,0.00,,,0.00,weatherlink.com 1.10,2013-10-13 07:23:00,
2013-10-13 03:38:00,59.3,54.0,30.16,NNE,28,0.0,9.0,81,0.00,,,0.00,weatherlink.com 1.10,2013-10-13 07:38:00,
2013-10-13 03:53:00,58.8,53.0,30.16,NNE,17,1.0,7.0,81,0.00,,,0.00,weatherlink.com 1.10,2013-10-13 07:53:00,
2013-10-13 04:08:00,58.2,52.0,30.17,North,9,3.0,7.0,81,0.00,,,0.00,weatherlink.com 1.10,2013-10-13 08:08:00,
2013-10-13 04:23:00,57.7,52.0,30.18,NE,34,1.0,6.0,82,0.00,,,0.00,weatherlink.com 1.10,2013-10-13 08:23:00,
2013-10-13 04:38:00,57.1,52.0,30.18,NNW,331,1.0,5.0,82,0.00,,,0.00,weatherlink.com 1.10,2013-10-13 08:38:00,
2013-10-13 04:53:00,56.7,52.0,30.19,North,355,5.0,6.0,83,0.00,,,0.00,weatherlink.com 1.10,2013-10-13 08:53:00,
2013-10-13 05:08:00,56.3,51.0,30.20,NW,309,4.0,8.0,83,0.00,,,0.00,weatherlink.com 1.10,2013-10-13 09:08:00,
2013-10-13 05:23:00,55.9,51.0,30.20,NNE,28,0.0,8.0,84,0.00,,,0.00,weatherlink.com 1.10,2013-10-13 09:23:00,
2013-10-13 05:38:00,55.4,51.0,30.20,NNE,13,1.0,5.0,84,0.00,,,0.00,weatherlink.com 1.10,2013-10-13 09:38:00,
2013-10-13 05:53:00,54.9,51.0,30.21,NW,313,0.0,5.0,85,0.00,,,0.00,weatherlink.com 1.10,2013-10-13 09:53:00,
2013-10-13 06:08:00,54.5,50.0,30.21,NNE,22,1.0,8.0,86,0.00,,,0.00,weatherlink.com 1.10,2013-10-13 10:08:00,
2013-10-13 06:23:00,54.2,51.0,30.22,NE,41,2.0,5.0,87,0.00,,,0.00,weatherlink.com 1.10,2013-10-13 10:23:00,
2013-10-13 06:38:00,53.7,50.0,30.22,NNE,26,1.0,4.0,87,0.00,,,0.00,weatherlink.com 1.10,2013-10-13 10:38:00,
2013-10-13 06:53:00,53.4,50.0,30.23,NNW,340,1.0,4.0,87,0.00,,,0.00,weatherlink.com 1.10,2013-10-13 10:53:00,
2013-10-13 07:08:00,53.1,49.0,30.24,North,5,0.0,2.0,87,0.00,,,0.00,weatherlink.com 1.10,2013-10-13 11:08:00,
2013-10-13 07:23:00,52.9,49.0,30.24,NW,307,0.0,3.0,87,0.00,,,0.00,weatherlink.com 1.10,2013-10-13 11:23:00,
2013-10-13 07:38:00,52.6,49.0,30.25,North,355,0.0,3.0,87,0.00,,,0.00,weatherlink.com 1.10,2013-10-13 11:38:00,
2013-10-13 07:53:00,52.4,49.0,30.25,NW,325,0.0,3.0,87,0.00,,,0.00,weatherlink.com 1.10,2013-10-13 11:53:00,
2013-10-13 08:08:00,52.2,49.0,30.25,North,355,1.0,3.0,87,0.00,,,0.00,weatherlink.com 1.10,2013-10-13 12:08:00,
2013-10-13 08:23:00,52.4,48.0,30.26,NNE,15,0.0,3.0,86,0.00,,,0.00,weatherlink.com 1.10,2013-10-13 12:23:00,
2013-10-13 08:38:00,52.6,49.0,30.26,North,355,1.0,4.0,86,0.00,,,0.00,weatherlink.com 1.10,2013-10-13 12:38:00,
2013-10-13 08:54:00,52.9,49.0,30.27,NNE,14,0.0,5.0,85,0.00,,,0.00,weatherlink.com 1.10,2013-10-13 12:54:00,
2013-10-13 09:09:00,53.4,49.0,30.28,NNW,345,1.0,4.0,84,0.00,,,0.00,weatherlink.com 1.10,2013-10-13 13:09:00,
2013-10-13 09:24:00,53.8,49.0,30.28,North,11,1.0,3.0,83,0.00,,,0.00,weatherlink.com 1.10,2013-10-13 13:24:00,
2013-10-13 09:39:00,54.4,49.0,30.29,North,5,3.0,5.0,82,0.00,,,0.00,weatherlink.com 1.10,2013-10-13 13:39:00,
2013-10-13 09:54:00,55.4,49.0,30.29,NNE,32,1.0,6.0,79,0.00,,,0.00,weatherlink.com 1.10,2013-10-13 13:54:00,
2013-10-13 10:09:00,56.7,49.0,30.30,NE,43,0.0,5.0,75,0.00,,,0.00,weatherlink.com 1.10,2013-10-13 14:09:00,
2013-10-13 10:24:00,57.8,48.0,30.30,NE,46,2.0,7.0,69,0.00,,,0.00,weatherlink.com 1.10,2013-10-13 14:24:00,
2013-10-13 10:39:00,58.7,47.0,30.30,NNE,31,1.0,7.0,65,0.00,,,0.00,weatherlink.com 1.10,2013-10-13 14:39:00,
2013-10-13 10:54:00,59.5,47.0,30.31,WSW,257,4.0,6.0,64,0.00,,,0.00,weatherlink.com 1.10,2013-10-13 14:54:00,
2013-10-13 11:09:00,60.1,46.0,30.31,NNE,18,4.0,8.0,59,0.00,,,0.00,weatherlink.com 1.10,2013-10-13 15:09:00,
2013-10-13 11:24:00,60.8,45.0,30.31,NW,304,2.0,7.0,57,0.00,,,0.00,weatherlink.com 1.10,2013-10-13 15:24:00,
2013-10-13 11:39:00,61.7,46.0,30.31,North,5,1.0,9.0,56,0.00,,,0.00,weatherlink.com 1.10,2013-10-13 15:39:00,
2013-10-13 11:54:00,62.6,47.0,30.31,NE,53,0.0,5.0,57,0.00,,,0.00,weatherlink.com 1.10,2013-10-13 15:54:00,
2013-10-13 12:09:00,62.9,45.0,30.31,ENE,60,2.0,6.0,52,0.00,,,0.00,weatherlink.com 1.10,2013-10-13 16:09:00,
2013-10-13 12:24:00,63.0,44.0,30.31,NE,40,0.0,7.0,50,0.00,,,0.00,weatherlink.com 1.10,2013-10-13 16:24:00,
2013-10-13 12:39:00,63.8,45.0,30.31,WNW,297,4.0,10.0,50,0.00,,,0.00,weatherlink.com 1.10,2013-10-13 16:39:00,
2013-10-13 12:54:00,64.9,47.0,30.31,WNW,291,1.0,8.0,52,0.00,,,0.00,weatherlink.com 1.10,2013-10-13 16:54:00,
2013-10-13 13:09:00,65.7,46.0,30.30,WSW,253,1.0,9.0,49,0.00,,,0.00,weatherlink.com 1.10,2013-10-13 17:09:00,
2013-10-13 13:24:00,66.0,46.0,30.30,West,274,4.0,6.0,49,0.00,,,0.00,weatherlink.com 1.10,2013-10-13 17:24:00,
2013-10-13 13:39:00,66.2,46.0,30.30,ENE,63,1.0,5.0,48,0.00,,,0.00,weatherlink.com 1.10,2013-10-13 17:39:00,
2013-10-13 13:54:00,66.9,45.0,30.30,NNE,29,3.0,8.0,46,0.00,,,0.00,weatherlink.com 1.10,2013-10-13 17:54:00,
2013-10-13 14:09:00,67.3,47.0,30.30,NNW,344,2.0,9.0,48,0.00,,,0.00,weatherlink.com 1.10,2013-10-13 18:09:00,
2013-10-13 14:24:00,66.9,45.0,30.29,WNW,298,4.0,8.0,46,0.00,,,0.00,weatherlink.com 1.10,2013-10-13 18:24:00,
2013-10-13 14:39:00,67.4,47.0,30.28,SSW,195,0.0,8.0,48,0.00,,,0.00,weatherlink.com 1.10,2013-10-13 18:39:00,
2013-10-13 14:54:00,67.9,47.0,30.28,WNW,297,2.0,11.0,48,0.00,,,0.00,weatherlink.com 1.10,2013-10-13 18:54:00,
2013-10-13 15:09:00,67.1,46.0,30.28,North,360,3.0,9.0,47,0.00,,,0.00,weatherlink.com 1.10,2013-10-13 19:09:00,
2013-10-13 15:39:00,66.3,45.0,30.29,West,262,3.0,8.0,47,0.00,,,0.00,weatherlink.com 1.10,2013-10-13 19:39:00,
2013-10-13 15:54:00,66.3,46.0,30.28,NW,325,5.0,11.0,48,0.00,,,0.00,weatherlink.com 1.10,2013-10-13 19:54:00,
2013-10-13 16:09:00,66.2,44.0,30.28,West,270,3.0,11.0,45,0.00,,,0.00,weatherlink.com 1.10,2013-10-13 20:09:00,
2013-10-13 16:24:00,66.0,44.0,30.28,NW,305,3.0,9.0,45,0.00,,,0.00,weatherlink.com 1.10,2013-10-13 20:24:00,
2013-10-13 16:39:00,66.8,43.0,30.28,NW,306,0.0,10.0,43,0.00,,,0.00,weatherlink.com 1.10,2013-10-13 20:39:00,
2013-10-13 16:54:00,66.8,43.0,30.28,West,275,3.0,12.0,42,0.00,,,0.00,weatherlink.com 1.10,2013-10-13 20:54:00,
2013-10-13 17:09:00,65.4,43.0,30.28,WNW,290,1.0,7.0,44,0.00,,,0.00,weatherlink.com 1.10,2013-10-13 21:09:00,
2013-10-13 17:24:00,64.3,41.0,30.29,WNW,288,2.0,8.0,43,0.00,,,0.00,weatherlink.com 1.10,2013-10-13 21:24:00,
2013-10-13 17:39:00,63.6,41.0,30.29,WNW,298,5.0,8.0,44,0.00,,,0.00,weatherlink.com 1.10,2013-10-13 21:39:00,
2013-10-13 17:54:00,62.8,41.0,30.29,NNE,23,3.0,9.0,45,0.00,,,0.00,weatherlink.com 1.10,2013-10-13 21:54:00,
2013-10-13 18:09:00,62.2,42.0,30.29,North,355,1.0,10.0,47,0.00,,,0.00,weatherlink.com 1.10,2013-10-13 22:09:00,
2013-10-13 18:24:00,61.6,42.0,30.30,NNW,332,3.0,6.0,49,0.00,,,0.00,weatherlink.com 1.10,2013-10-13 22:24:00,
2013-10-13 18:39:00,60.9,41.0,30.30,WNW,282,0.0,7.0,49,0.00,,,0.00,weatherlink.com 1.10,2013-10-13 22:39:00,
2013-10-13 18:54:00,59.9,42.0,30.30,NW,313,1.0,7.0,52,0.00,,,0.00,weatherlink.com 1.10,2013-10-13 22:54:00,
2013-10-13 19:09:00,58.9,42.0,30.31,North,349,1.0,4.0,54,0.00,,,0.00,weatherlink.com 1.10,2013-10-13 23:09:00,
2013-10-13 19:24:00,57.7,41.0,30.32,WNW,300,3.0,6.0,55,0.00,,,0.00,weatherlink.com 1.10,2013-10-13 23:24:00,
2013-10-13 19:39:00,56.8,41.0,30.32,North,11,0.0,6.0,56,0.00,,,0.00,weatherlink.com 1.10,2013-10-13 23:39:00,
2013-10-13 19:54:00,55.9,41.0,30.32,NE,36,1.0,5.0,58,0.00,,,0.00,weatherlink.com 1.10,2013-10-13 23:54:00,
2013-10-13 20:09:00,55.1,41.0,30.33,NNW,338,0.0,6.0,60,0.00,,,0.00,weatherlink.com 1.10,2013-10-14 00:09:00,
2013-10-13 20:24:00,54.2,42.0,30.33,NNW,329,0.0,4.0,64,0.00,,,0.00,weatherlink.com 1.10,2013-10-14 00:24:00,
2013-10-13 20:39:00,53.5,43.0,30.34,NE,36,1.0,5.0,67,0.00,,,0.00,weatherlink.com 1.10,2013-10-14 00:39:00,
2013-10-13 20:54:00,52.9,43.0,30.34,NW,320,1.0,6.0,69,0.00,,,0.00,weatherlink.com 1.10,2013-10-14 00:54:00,
2013-10-13 21:09:00,52.3,43.0,30.34,NNE,19,1.0,7.0,71,0.00,,,0.00,weatherlink.com 1.10,2013-10-14 01:09:00,
2013-10-13 21:24:00,51.7,43.0,30.34,NNE,26,1.0,4.0,73,0.00,,,0.00,weatherlink.com 1.10,2013-10-14 01:24:00,
2013-10-13 21:39:00,51.2,43.0,30.34,WNW,294,0.0,7.0,74,0.00,,,0.00,weatherlink.com 1.10,2013-10-14 01:39:00,
2013-10-13 21:55:00,50.7,43.0,30.34,NNE,30,2.0,5.0,76,0.00,,,0.00,weatherlink.com 1.10,2013-10-14 01:55:00,
2013-10-13 22:25:00,49.9,43.0,30.34,NNE,18,4.0,6.0,77,0.00,,,0.00,weatherlink.com 1.10,2013-10-14 02:25:00,
2013-10-13 22:40:00,49.5,43.0,30.35,North,11,2.0,5.0,78,0.00,,,0.00,weatherlink.com 1.10,2013-10-14 02:40:00,
2013-10-13 22:55:00,49.0,43.0,30.35,North,350,4.0,6.0,79,0.00,,,0.00,weatherlink.com 1.10,2013-10-14 02:55:00,
2013-10-13 23:10:00,48.5,43.0,30.35,NE,50,3.0,5.0,80,0.00,,,0.00,weatherlink.com 1.10,2013-10-14 03:10:00,
2013-10-13 23:25:00,48.2,43.0,30.35,NE,55,2.0,4.0,81,0.00,,,0.00,weatherlink.com 1.10,2013-10-14 03:25:00,
2013-10-13 23:40:00,48.1,43.0,30.36,NNE,22,1.0,6.0,82,0.00,,,0.00,weatherlink.com 1.10,2013-10-14 03:40:00,
2013-10-13 23:55:00,47.8,43.0,30.36,NE,40,3.0,8.0,82,0.00,,,0.00,weatherlink.com 1.10,2013-10-14 03:55:00,